ヴァレス彗星

P/2010 H2 ( Vales )

English version
Home page
Updated on October 3, 2010

---------------------------------------------------------------------

・ プロフィール

発見日 2010年4月16日
発見光度 12.6等
発見者 J. Vales (Crni Vrh, Slovenia)

・ 写真集

・ 軌道要素

The following orbital elements are taken from MPC 70362:

Epoch 2010 Mar. 25.0 TT = JDT 2455280.5
T 2010 Mar. 8.1621 TT                                   MPC
q   3.107746             (2000.0)            P               Q
n   0.1304571      Peri.  129.8940      -0.9481638      +0.2274938
a   3.850268       Node    64.3048      -0.3095915      -0.8187784
e   0.192849       Incl.   14.2546      +0.0716837      -0.5271134
P   7.56
From 1315 observations 2010 Apr. 16-May 24.

・ 星図

・ 光度変化

        H = 16.0  G = 0.15                        [   , 40]  (              〜2010年 4月15日)
        m1 = -240 + 5 logΔ + 400 log r(t + 800)  [ 40,240]  (2010年 4月15日〜2010年11月 1日)
        H = 16.0  G = 0.15                        [240,   ]  (2010年11月 1日〜              )

---------------------------------------------------------------------

軌道要素はMPCのEphemerides and Orbital Elementsに掲載されたものです。
星図はステラナビゲータ Ver.8 (アストロアーツ) で作成したものです。
光度グラフはComet for Windowsで作成したものです。

---------------------------------------------------------------------

Copyright(C) Seiichi Yoshida (comet@aerith.net). All rights reserved.